Location: Unspecified
(51.0950°N, 12.9690°E)
Time: 12:08:18
(UTC+00:00)

CAS-4B - Visible Passes

Search period start: 24 April 2024 00:00
Search period end: 04 May 2024 00:00
Orbit: 479 x 496 km, 43.0° (Epoch: 24 April)

Date Brightness Start Highest point End Pass type
(mag) Time Alt. Az. Time Alt. Az. Time Alt. Az.
24 Apr ? 00:56:39 11° ESE 00:56:39 11° ESE 00:56:52 10° ESE visible
24 Apr ? 02:30:58 19° SW 02:32:32 24° S 02:35:41 10° SE visible
25 Apr ? 02:05:50 24° SSW 02:06:17 24° S 02:09:26 10° SE visible
26 Apr ? 01:40:43 23° SSE 01:40:43 23° SSE 01:43:07 10° SE visible
27 Apr ? 01:15:40 16° SE 01:15:40 16° SE 01:16:46 10° SE visible
27 Apr ? 02:50:01 12° SW 02:51:56 17° SSW 02:54:24 10° SSE visible
28 Apr ? 02:25:05 16° SSW 02:25:31 17° SSW 02:28:00 10° SSE visible
29 Apr ? 02:00:23 14° S 02:00:23 14° S 02:01:31 10° SSE visible
03 May ? 20:26:54 10° SSW 20:27:38 13° SSW 20:27:38 13° SSW visible
